Location: Quedlinburg
(51.7921°N, 11.1414°E)
Time: 07:53:58
(UTC+02:00)

SO-50 - Pass Details

Date: 07 March 2026
Orbit: 567 x 673 km, 64.6° (Epoch: 13 April)

Event Time Altitude Azimuth Distance (km) Brightness Sun altitude
Exits shadow 04:27:25 34° 316° (NW) 1,114 ? -22.2°
Maximum altitude 04:29:32 86° 227° (SW) 680 ? -21.9°
Drops below altitude 10° 04:34:18 10° 141° (SE) 2,084 ? -21.2°
Sets 04:36:35 0° 141° (SE) 2,982 ? -20.9°
